Tracking 18630 objects as of 26-May-2017
HD Live streaming from Space Station
objects crossing your sky now

SL-16 DEB

Track SL-16 DEB now!
10-day predictions


NORAD ID: 22336
Int'l Code: 1992-093Z
Perigee: 838.7 km
Apogee: 1,014.8 km
Inclination: 71.1 °
Period: 103.4 minutes
Semi major axis: 7297 km
RCS: 0.2247 m2 (medium)
Launch date: December 25, 1992
Source: Commonwealth of Independent States (former USSR) (CIS)
Launch site: TYURATAM MISSILE AND SPACE COMPLEX (TTMTR)

Note: This is SATELLITE DEBRIS
Your satellite tracking list
Your tracking list is empty





NASA's NSSDC Master Catalog

Two Line Element Set (TLE):
1 22336U 92093Z   17145.16147601 +.00000196 +00000-0 +17548-3 0  9997
2 22336 071.1329 044.1532 0120642 262.5576 203.4652 13.92583552236420
Source of the keplerian elements: AFSPC